Location: Huesca
(42.1318°N, 0.4078°W)
Time: 05:08:38
(UTC+02:00)

Altair - Pass Details

Date: 16 July 2024
Orbit: 1502 x 1682 km, 47.2° (Epoch: 13 July)

Event Time Altitude Azimuth Distance (km) Brightness Sun altitude
Rises 20:52:51 0° 230° (SW) 4,714 10.4 6.2°
Reaches altitude 10° 20:55:57 10° 228° (SW) 3,712 9.9 5.6°
Maximum altitude 21:05:12 70° 147° (SSE) 1,590 7.6 4.1°
Drops below altitude 10° 21:14:17 10° 66° (ENE) 3,656 9.1 2.6°
Sets 21:17:19 0° 64° (ENE) 4,640 9.7 2.1°
